N760SF KORD-KMSP

Flight info

Callsign N760SF
Flight time 0h 49m
Altitude 36000
Route PMPKN NEATO DLLAN RONIC KAMMA KKILR4
Aircraft A320/M-SDE3FGHIRWY/LB1

Departure

Time 2026-05-08 04:14
Airport Chicago O'Hare International Airport (KORD)

Arrival

Time 2026-05-08 05:04
Airport Minneapolis–Saint Paul International Airport / Wold–Chamberlain Field (KMSP)
Time Latitude Longitude Altitude Speed Heading
2026-05-08 04:00 41.97547 -87.90189 670 ft 2 kts 280°
2026-05-08 04:00 41.97544 -87.90166 668 ft 2 kts 280°
2026-05-08 04:00 41.97541 -87.90143 670 ft 2 kts 280°
2026-05-08 04:00 41.97540 -87.90135 669 ft 0 kts 280°
2026-05-08 04:04 41.97517 -87.90167 670 ft 24 kts 206°
2026-05-08 04:05 41.97284 -87.90185 670 ft 31 kts 181°
2026-05-08 04:05 41.97142 -87.90284 670 ft 19 kts 255°
2026-05-08 04:05 41.97139 -87.90310 670 ft 0 kts 267°
2026-05-08 04:06 41.97139 -87.90311 670 ft 1 kts 268°
2026-05-08 04:06 41.97139 -87.90413 670 ft 20 kts 271°
2026-05-08 04:07 41.97054 -87.90500 668 ft 20 kts 225°
2026-05-08 04:07 41.97042 -87.90689 670 ft 21 kts 269°
2026-05-08 04:07 41.97041 -87.90891 670 ft 22 kts 270°
2026-05-08 04:07 41.97044 -87.91100 671 ft 23 kts 272°
2026-05-08 04:08 41.97039 -87.91315 671 ft 23 kts 267°
2026-05-08 04:08 41.97041 -87.91538 672 ft 24 kts 272°
2026-05-08 04:08 41.97046 -87.91754 672 ft 4 kts 271°
2026-05-08 04:08 41.97046 -87.91755 672 ft 0 kts 271°
2026-05-08 04:09 41.97046 -87.91764 672 ft 7 kts 270°
2026-05-08 04:09 41.97038 -87.92056 671 ft 34 kts 270°
2026-05-08 04:09 41.97041 -87.92228 671 ft 20 kts 271°
2026-05-08 04:09 41.97042 -87.92447 671 ft 26 kts 269°
2026-05-08 04:10 41.97042 -87.92708 671 ft 15 kts 270°
2026-05-08 04:10 41.97042 -87.92763 671 ft 22 kts 270°
2026-05-08 04:10 41.97042 -87.93047 673 ft 30 kts 269°
2026-05-08 04:10 41.97175 -87.93135 671 ft 26 kts 356°
2026-05-08 04:11 41.97369 -87.93172 671 ft 30 kts 352°
2026-05-08 04:11 41.97590 -87.93186 670 ft 33 kts 360°
2026-05-08 04:11 41.97833 -87.93186 670 ft 36 kts
2026-05-08 04:11 41.98093 -87.93147 669 ft 39 kts
2026-05-08 04:12 41.98339 -87.93137 672 ft 8 kts 360°
2026-05-08 04:12 41.98356 -87.93137 672 ft 8 kts 359°
2026-05-08 04:12 41.98526 -87.93143 671 ft 32 kts 359°
2026-05-08 04:12 41.98674 -87.93144 671 ft 9 kts
2026-05-08 04:13 41.98702 -87.93143 671 ft 0 kts
2026-05-08 04:13 41.98764 -87.93141 671 ft 10 kts
2026-05-08 04:13 41.98825 -87.93061 671 ft 20 kts 73°
2026-05-08 04:13 41.98830 -87.92848 671 ft 32 kts 89°
2026-05-08 04:14 41.98838 -87.92132 672 ft 119 kts 89°
2026-05-08 04:14 41.98854 -87.90765 947 ft 154 kts 89°
2026-05-08 04:14 41.98864 -87.89276 1510 ft 171 kts 90°
2026-05-08 04:14 41.98857 -87.87521 1917 ft 208 kts 90°
2026-05-08 04:15 41.98917 -87.85450 2542 ft 235 kts 78°
2026-05-08 04:15 41.99564 -87.83322 3266 ft 260 kts 52°
2026-05-08 04:15 42.00958 -87.81700 4232 ft 271 kts 24°
2026-05-08 04:15 42.02778 -87.81106 5449 ft 273 kts 356°
2026-05-08 04:16 42.04633 -87.81619 6728 ft 274 kts 340°
2026-05-08 04:16 42.06483 -87.82444 8046 ft 279 kts 339°
2026-05-08 04:16 42.08339 -87.83283 9290 ft 284 kts 339°
2026-05-08 04:16 42.10211 -87.84125 10455 ft 290 kts 340°
2026-05-08 04:17 42.12166 -87.85001 11596 ft 295 kts 340°
2026-05-08 04:17 42.14132 -87.85879 12692 ft 300 kts 340°
2026-05-08 04:17 42.15451 -87.86468 13383 ft 304 kts 340°
2026-05-08 04:17 42.17476 -87.87370 14399 ft 309 kts 340°
2026-05-08 04:18 42.19534 -87.88286 15373 ft 314 kts 340°
2026-05-08 04:18 42.21623 -87.89217 16301 ft 319 kts 340°
2026-05-08 04:18 42.23744 -87.90166 17200 ft 323 kts 340°
2026-05-08 04:18 42.25895 -87.91131 18072 ft 328 kts 340°
2026-05-08 04:19 42.28073 -87.92109 18915 ft 332 kts 340°
2026-05-08 04:19 42.30282 -87.93090 19730 ft 337 kts 342°
2026-05-08 04:19 42.32620 -87.93605 20506 ft 344 kts 353°
2026-05-08 04:19 42.35060 -87.93901 20884 ft 362 kts 353°
2026-05-08 04:20 42.37656 -87.94209 20992 ft 386 kts 353°
2026-05-08 04:20 42.40418 -87.94532 21011 ft 410 kts 354°
2026-05-08 04:20 42.43323 -87.94872 21013 ft 429 kts 354°
2026-05-08 04:20 42.46345 -87.95226 21010 ft 444 kts 354°
2026-05-08 04:21 42.49465 -87.95597 21009 ft 456 kts 353°
2026-05-08 04:21 42.52670 -87.95985 21009 ft 467 kts 353°
2026-05-08 04:21 42.55941 -87.96387 21009 ft 476 kts 353°
2026-05-08 04:21 42.59265 -87.96799 21009 ft 484 kts 353°
2026-05-08 04:22 42.62615 -87.97214 21384 ft 481 kts 353°
2026-05-08 04:22 42.65968 -87.97631 21456 ft 486 kts 353°
2026-05-08 04:22 42.69326 -87.98048 21873 ft 483 kts 353°
2026-05-08 04:22 42.72630 -87.98636 22497 ft 472 kts 345°
2026-05-08 04:23 42.75629 -88.00127 23744 ft 450 kts 332°
2026-05-08 04:23 42.78344 -88.02164 24611 ft 441 kts 329°
2026-05-08 04:23 42.81026 -88.04278 25245 ft 438 kts 328°
2026-05-08 04:23 42.83649 -88.06388 25788 ft 437 kts 328°
2026-05-08 04:24 42.86263 -88.08492 26310 ft 436 kts 328°
2026-05-08 04:24 42.88878 -88.10577 26835 ft 435 kts 328°
2026-05-08 04:24 42.91494 -88.12640 27348 ft 434 kts 329°
2026-05-08 04:24 42.94113 -88.14685 27849 ft 433 kts 329°
2026-05-08 04:25 42.96727 -88.16721 28346 ft 432 kts 329°
2026-05-08 04:25 42.99333 -88.18752 28816 ft 432 kts 329°
2026-05-08 04:25 43.01965 -88.20811 28989 ft 440 kts 329°
2026-05-08 04:25 43.04648 -88.22921 29011 ft 449 kts 329°
2026-05-08 04:26 43.10134 -88.27357 29009 ft 466 kts 323°
2026-05-08 04:26 43.14763 -88.33637 29011 ft 475 kts 308°
2026-05-08 04:27 43.18936 -88.40759 29009 ft 483 kts 308°
2026-05-08 04:27 43.23156 -88.47979 29009 ft 487 kts 308°
2026-05-08 04:28 43.27395 -88.55252 29010 ft 490 kts 308°
2026-05-08 04:28 43.31659 -88.62560 29009 ft 492 kts 308°
2026-05-08 04:29 43.33787 -88.66210 29449 ft 481 kts 308°
2026-05-08 04:29 43.35834 -88.69724 30419 ft 465 kts 308°
2026-05-08 04:29 43.37844 -88.73183 30798 ft 463 kts 308°
2026-05-08 04:29 43.39855 -88.76656 30974 ft 466 kts 308°
2026-05-08 04:30 43.43918 -88.83697 31009 ft 475 kts 308°
2026-05-08 04:30 43.48052 -88.90867 31009 ft 481 kts 308°
2026-05-08 04:31 43.52255 -88.98164 31009 ft 484 kts 308°
2026-05-08 04:31 43.56424 -89.05426 31009 ft 488 kts 307°
2026-05-08 04:32 43.60668 -89.12843 31009 ft 491 kts 307°
2026-05-08 04:32 43.64846 -89.20148 31009 ft 478 kts 307°
2026-05-08 04:33 43.68913 -89.27267 31009 ft 468 kts 307°
2026-05-08 04:33 43.72905 -89.34284 31010 ft 462 kts 307°
2026-05-08 04:34 43.76926 -89.41381 31010 ft 473 kts 307°
2026-05-08 04:34 43.81007 -89.48613 31009 ft 480 kts 307°
2026-05-08 04:35 43.85130 -89.55935 31009 ft 484 kts 307°
2026-05-08 04:35 43.89290 -89.63311 31009 ft 487 kts 307°
2026-05-08 04:36 43.93473 -89.70749 31009 ft 490 kts 307°
2026-05-08 04:36 43.97642 -89.78205 31009 ft 484 kts 307°
2026-05-08 04:37 44.01738 -89.85531 31009 ft 476 kts 307°
2026-05-08 04:37 44.05770 -89.92771 31009 ft 472 kts 307°
2026-05-08 04:38 44.09791 -89.99943 31009 ft 469 kts 308°
2026-05-08 04:38 44.13942 -90.07001 31009 ft 467 kts 309°
2026-05-08 04:39 44.18088 -90.13964 31009 ft 467 kts 309°
2026-05-08 04:39 44.22192 -90.20967 31009 ft 466 kts 308°
2026-05-08 04:40 44.26267 -90.27993 31009 ft 466 kts 308°
2026-05-08 04:40 44.30329 -90.35025 31009 ft 465 kts 308°
2026-05-08 04:41 44.34303 -90.42155 31009 ft 465 kts 301°
2026-05-08 04:41 44.37036 -90.50304 31009 ft 464 kts 292°
2026-05-08 04:42 44.39492 -90.58634 31009 ft 464 kts 292°
2026-05-08 04:42 44.41943 -90.66964 31016 ft 460 kts 292°
2026-05-08 04:43 44.44416 -90.75324 31010 ft 470 kts 292°
2026-05-08 04:43 44.46943 -90.83849 31010 ft 478 kts 292°
2026-05-08 04:44 44.49486 -90.92488 31009 ft 482 kts 292°
2026-05-08 04:44 44.52025 -91.01165 30968 ft 475 kts 291°
2026-05-08 04:45 44.53266 -91.05420 30669 ft 472 kts 291°
2026-05-08 04:45 44.54514 -91.09702 29940 ft 478 kts 291°
2026-05-08 04:45 44.55777 -91.14035 29199 ft 482 kts 291°
2026-05-08 04:45 44.57045 -91.18390 28487 ft 484 kts 291°
2026-05-08 04:46 44.58318 -91.22770 27764 ft 486 kts 291°
2026-05-08 04:46 44.59590 -91.27165 27039 ft 486 kts 291°
2026-05-08 04:46 44.60876 -91.31628 26301 ft 487 kts 291°
2026-05-08 04:46 44.62126 -91.35976 25586 ft 487 kts 291°
2026-05-08 04:47 44.63414 -91.40441 24843 ft 487 kts 291°
2026-05-08 04:47 44.64684 -91.44838 24123 ft 486 kts 291°
2026-05-08 04:47 44.65955 -91.49248 23397 ft 486 kts 291°
2026-05-08 04:47 44.67214 -91.53631 22873 ft 482 kts 291°
2026-05-08 04:48 44.68460 -91.57977 22407 ft 478 kts 291°
2026-05-08 04:48 44.69689 -91.62275 21846 ft 466 kts 291°
2026-05-08 04:48 44.70867 -91.66384 21118 ft 440 kts 291°
2026-05-08 04:48 44.71986 -91.70283 20398 ft 420 kts 291°
2026-05-08 04:49 44.73052 -91.74014 19675 ft 403 kts 291°
2026-05-08 04:49 44.74079 -91.77612 18950 ft 390 kts 291°
2026-05-08 04:49 44.75066 -91.81095 18229 ft 378 kts 291°
2026-05-08 04:49 44.76026 -91.84487 17496 ft 368 kts 291°
2026-05-08 04:50 44.76960 -91.87782 16777 ft 358 kts 291°
2026-05-08 04:50 44.77860 -91.91007 16052 ft 350 kts 290°
2026-05-08 04:50 44.78436 -91.93112 15571 ft 346 kts 290°
2026-05-08 04:50 44.79284 -91.96247 14838 ft 339 kts 290°
2026-05-08 04:51 44.80387 -92.00351 13903 ft 331 kts 290°
2026-05-08 04:51 44.80930 -92.02375 13595 ft 336 kts 290°
2026-05-08 04:51 44.81765 -92.05495 13190 ft 344 kts 290°
2026-05-08 04:51 44.82619 -92.08672 12847 ft 349 kts 290°
2026-05-08 04:52 44.83481 -92.11871 12596 ft 350 kts 290°
2026-05-08 04:52 44.84357 -92.15120 12343 ft 350 kts 290°
2026-05-08 04:52 44.85145 -92.18366 12090 ft 350 kts 283°
2026-05-08 04:52 44.85484 -92.21748 11845 ft 346 kts 274°
2026-05-08 04:53 44.85680 -92.25078 11588 ft 336 kts 275°
2026-05-08 04:53 44.85876 -92.28309 11332 ft 326 kts 275°
2026-05-08 04:53 44.86068 -92.31459 10974 ft 320 kts 275°
2026-05-08 04:53 44.86251 -92.34575 10528 ft 318 kts 274°
2026-05-08 04:54 44.86408 -92.37640 10324 ft 307 kts 274°
2026-05-08 04:54 44.86549 -92.40590 10196 ft 295 kts 274°
2026-05-08 04:54 44.86679 -92.43415 9875 ft 283 kts 274°
2026-05-08 04:54 44.86800 -92.46172 9745 ft 283 kts 271°
2026-05-08 04:55 44.86608 -92.48919 9428 ft 282 kts 256°
2026-05-08 04:55 44.85906 -92.51488 9056 ft 281 kts 243°
2026-05-08 04:55 44.85000 -92.53916 8673 ft 279 kts 243°
2026-05-08 04:55 44.84106 -92.56339 8293 ft 278 kts 243°
2026-05-08 04:56 44.83223 -92.58749 7920 ft 276 kts 244°
2026-05-08 04:56 44.82347 -92.61148 7539 ft 275 kts 244°
2026-05-08 04:56 44.81477 -92.63537 7175 ft 273 kts 244°
2026-05-08 04:56 44.80615 -92.65899 7094 ft 271 kts 244°
2026-05-08 04:57 44.79745 -92.68272 7100 ft 272 kts 244°
2026-05-08 04:57 44.78918 -92.70521 7094 ft 245 kts 244°
2026-05-08 04:57 44.78161 -92.72571 7098 ft 232 kts 244°
2026-05-08 04:57 44.77466 -92.74597 7100 ft 229 kts 252°
2026-05-08 04:58 44.77182 -92.76793 7001 ft 231 kts 270°
2026-05-08 04:58 44.77319 -92.79013 6694 ft 227 kts 276°
2026-05-08 04:58 44.77482 -92.81221 6417 ft 226 kts 275°
2026-05-08 04:58 44.77637 -92.83422 6152 ft 225 kts 275°
2026-05-08 04:59 44.77789 -92.85611 5888 ft 224 kts 275°
2026-05-08 04:59 44.77941 -92.87790 5624 ft 223 kts 275°
2026-05-08 04:59 44.78092 -92.89962 5366 ft 223 kts 275°
2026-05-08 04:59 44.78240 -92.92120 5161 ft 216 kts 275°
2026-05-08 05:00 44.78378 -92.94129 4898 ft 200 kts 275°
2026-05-08 05:00 44.78507 -92.96047 4635 ft 196 kts 275°
2026-05-08 05:00 44.78637 -92.97948 4402 ft 194 kts 275°
2026-05-08 05:00 44.78785 -92.99857 4185 ft 193 kts 281°
2026-05-08 05:01 44.79287 -93.01593 4100 ft 193 kts 300°
2026-05-08 05:01 44.79985 -93.03187 4100 ft 194 kts 300°
2026-05-08 05:01 44.80702 -93.04826 4101 ft 194 kts 300°
2026-05-08 05:01 44.81400 -93.06426 3793 ft 190 kts 300°
2026-05-08 05:02 44.82093 -93.08016 3324 ft 191 kts 300°
2026-05-08 05:02 44.82785 -93.09606 2880 ft 190 kts 300°
2026-05-08 05:02 44.83474 -93.11190 2446 ft 189 kts 300°
2026-05-08 05:02 44.84157 -93.12759 2090 ft 188 kts 300°
2026-05-08 05:03 44.84838 -93.14325 1812 ft 187 kts 300°
2026-05-08 05:03 44.85517 -93.15889 1554 ft 187 kts 300°
2026-05-08 05:03 44.86198 -93.17457 1304 ft 188 kts 300°
2026-05-08 05:03 44.86876 -93.19019 1054 ft 187 kts 300°
2026-05-08 05:04 44.87547 -93.20566 830 ft 175 kts 301°
2026-05-08 05:04 44.87940 -93.21474 821 ft 32 kts 300°
2026-05-08 05:04 44.88037 -93.21679 822 ft 6 kts 345°
2026-05-08 05:04 44.88130 -93.21604 825 ft 30 kts 36°
2026-05-08 05:05 44.88297 -93.21703 825 ft 26 kts 314°
2026-05-08 05:05 44.88448 -93.21732 825 ft 25 kts 55°
2026-05-08 05:05 44.88561 -93.21541 824 ft 26 kts 49°
2026-05-08 05:05 44.88686 -93.21343 823 ft 28 kts 48°
2026-05-08 05:06 44.88653 -93.21149 825 ft 17 kts 157°
2026-05-08 05:06 44.88596 -93.21172 824 ft 5 kts 172°
2026-05-08 05:06 44.88564 -93.21155 825 ft 9 kts 171°
2026-05-08 05:06 44.88519 -93.21190 822 ft 0 kts 230°